The Dalles, WA

1:57 AM PST on November 14, 2019 (GMT -0800)
Columbia Gorge Regional-The Dalles

Weather History for KDLS - September, 2019

Change the Weather History Date:

Tuesday, September 24, 2019

  Actual Average Record
Temperature  
Mean Temperature 66 °F -  
Max Temperature 75 °F 78 °F 97 °F (1952)
Min Temperature 57 °F 49 °F 33 °F (1961)
Cooling Degree Days 1    
Growing Degree Days 16 (Base 50)    
Moisture  
Dew Point 52 °F    
Average Humidity 59    
Maximum Humidity 81    
Minimum Humidity 38    
Precipitation  
Precipitation 0.00 in - - ()
Sea Level Pressure  
Sea Level Pressure 30.18 in    
Wind  
Wind Speed 13 mph (WNW)    
Max Wind Speed 28 mph    
Max Gust Speed 36 mph    
Visibility 10 miles    
Events      
Averages and records for this station are not official NWS values.
T = Trace of Precipitation, MM = Missing Value Source: NWS Daily Summary

Daily Weather History Graph

Daily Weather History Graph

Search for Another Location

Airport or City:

Astronomy

Sep. 24, 2019 Rise Set
Actual Time 6:54 AM PDT 6:58 PM PDT
Civil Twilight 6:24 AM PDT 7:28 PM PDT
Nautical Twilight 5:49 AM PDT 8:02 PM PDT
Astronomical Twilight 5:14 AM PDT 8:38 PM PDT
Moon 1:26 AM PDT (9/24) 5:05 PM PDT (9/24)
Length of Visible Light 13h 03m
Length of Day
12h 04m
Waning Crescent, 22% of the Moon is Illuminated
Sep 24
Waning Crescent
Sep 28
New
Oct 5
First Quarter
Oct 13
Full
Oct 21
Last Quarter

Hourly Weather History & Observations

Time (PDT) Temp. Dew Point Humidity Pressure Visibility Wind Dir Wind Speed Gust Speed Precip Events Conditions
12:53 AM 63.0 °F 50.0 °F 63% 30.18 in 10.0 mi WNW 10.4 mph 17.3 mph N/A   Overcast
1:53 AM 62.1 °F 51.1 °F 67% 30.18 in 10.0 mi WNW 17.3 mph 25.3 mph N/A   Mostly Cloudy
2:53 AM 62.1 °F 51.1 °F 67% 30.19 in 10.0 mi WNW 15.0 mph - N/A   Clear
3:53 AM 62.1 °F 52.0 °F 70% 30.18 in 10.0 mi WNW 19.6 mph - N/A   Clear
4:53 AM 62.1 °F 52.0 °F 70% 30.19 in 10.0 mi WNW 13.8 mph - N/A   Clear
5:53 AM 60.1 °F 52.0 °F 75% 30.21 in 10.0 mi West 9.2 mph - N/A   Clear
6:53 AM 57.9 °F 52.0 °F 81% 30.21 in 10.0 mi SW 4.6 mph - N/A   Clear
7:46 AM 61.0 °F 53.1 °F 75% 30.22 in 10.0 mi SSW 4.6 mph - N/A   Mostly Cloudy
7:53 AM 61.0 °F 53.1 °F 75% 30.22 in 10.0 mi SW 5.8 mph - N/A   Mostly Cloudy
8:53 AM 64.9 °F 54.0 °F 68% 30.22 in 10.0 mi WSW 4.6 mph - N/A   Overcast
9:53 AM 69.1 °F 55.9 °F 63% 30.23 in 10.0 mi NW 11.5 mph - N/A   Unknown
10:53 AM 70.0 °F 55.9 °F 61% 30.22 in 10.0 mi WNW 15.0 mph - N/A   Clear
11:53 AM 73.0 °F 57.0 °F 57% 30.20 in 10.0 mi NW 18.4 mph - N/A   Clear
12:53 PM 73.9 °F 55.9 °F 53% 30.18 in 10.0 mi NW 24.2 mph 31.1 mph N/A   Clear
1:53 PM 75.9 °F 54.0 °F 46% 30.18 in 10.0 mi WNW 21.9 mph - N/A   Clear
2:53 PM 75.9 °F 48.9 °F 38% 30.17 in 10.0 mi WNW 21.9 mph 28.8 mph N/A   Clear
3:53 PM 75.0 °F 48.9 °F 40% 30.16 in 10.0 mi WNW 9.2 mph 23.0 mph N/A   Clear
4:53 PM 73.9 °F 48.0 °F 40% 30.15 in 10.0 mi WNW 16.1 mph 25.3 mph N/A   Clear
5:53 PM 72.0 °F 46.9 °F 41% 30.15 in 10.0 mi WNW 27.6 mph 35.7 mph N/A   Clear
6:53 PM 69.1 °F 48.0 °F 47% 30.16 in 10.0 mi WNW 19.6 mph - N/A   Clear
7:53 PM 66.9 °F 46.9 °F 49% 30.15 in 10.0 mi WNW 10.4 mph - N/A   Clear
8:53 PM 66.0 °F 50.0 °F 56% 30.16 in 10.0 mi West 10.4 mph - N/A   Clear
9:53 PM 64.9 °F 51.1 °F 61% 30.15 in 10.0 mi WNW 16.1 mph - N/A   Clear
10:53 PM 64.9 °F 50.0 °F 58% 30.16 in 10.0 mi NW 11.5 mph 24.2 mph N/A   Clear
11:53 PM 64.0 °F 50.0 °F 60% 30.16 in 10.0 mi West 5.8 mph - N/A   Clear